JBU381 KBOS-KRIC

Flight info

Callsign JBU381
Flight time 1h 30m
Altitude 36000
Route SSOXS7 SSOXS Q167 ZJAAY ARICE JAMIE
Aircraft A320/M-SDE3FGHIRWY/LB1

Departure

Time 2026-05-07 12:11
Airport Boston Logan International Airport (KBOS)

Arrival

Time 2026-05-07 13:42
Airport Richmond International Airport (KRIC)
Time Latitude Longitude Altitude Speed Heading
2026-05-07 11:41 42.36613 -71.01474 29 ft 0 kts 216°
2026-05-07 12:00 42.36617 -71.01470 31 ft 4 kts 216°
2026-05-07 12:00 42.36639 -71.01449 30 ft 4 kts 212°
2026-05-07 12:01 42.36662 -71.01432 28 ft 4 kts 198°
2026-05-07 12:01 42.36683 -71.01428 28 ft 4 kts 132°
2026-05-07 12:01 42.36686 -71.01431 28 ft 0 kts 79°
2026-05-07 12:04 42.36687 -71.01431 28 ft 1 kts 79°
2026-05-07 12:05 42.36696 -71.01361 30 ft 12 kts 79°
2026-05-07 12:05 42.36676 -71.01263 26 ft 13 kts 163°
2026-05-07 12:05 42.36582 -71.01294 26 ft 15 kts 198°
2026-05-07 12:05 42.36478 -71.01360 27 ft 18 kts 209°
2026-05-07 12:06 42.36376 -71.01392 27 ft 15 kts 154°
2026-05-07 12:06 42.36315 -71.01271 28 ft 17 kts 121°
2026-05-07 12:06 42.36254 -71.01131 27 ft 15 kts 115°
2026-05-07 12:06 42.36211 -71.01000 25 ft 16 kts 114°
2026-05-07 12:07 42.36162 -71.00851 28 ft 19 kts 114°
2026-05-07 12:07 42.36118 -71.00713 26 ft 15 kts 109°
2026-05-07 12:07 42.36081 -71.00566 28 ft 18 kts 109°
2026-05-07 12:07 42.36043 -71.00416 30 ft 15 kts 109°
2026-05-07 12:08 42.36007 -71.00270 25 ft 18 kts 109°
2026-05-07 12:08 42.35964 -71.00103 26 ft 20 kts 109°
2026-05-07 12:08 42.35958 -70.99936 25 ft 20 kts 76°
2026-05-07 12:08 42.35990 -70.99757 25 ft 17 kts 76°
2026-05-07 12:09 42.36020 -70.99591 28 ft 19 kts 77°
2026-05-07 12:09 42.36053 -70.99401 27 ft 22 kts 76°
2026-05-07 12:09 42.36092 -70.99186 30 ft 25 kts 77°
2026-05-07 12:09 42.36125 -70.98994 27 ft 20 kts 76°
2026-05-07 12:10 42.36118 -70.98851 25 ft 15 kts 144°
2026-05-07 12:10 42.36027 -70.98832 27 ft 12 kts 201°
2026-05-07 12:10 42.36003 -70.98892 30 ft 0 kts 255°
2026-05-07 12:10 42.35992 -70.98946 25 ft 31 kts 256°
2026-05-07 12:11 42.35885 -70.99554 27 ft 99 kts 256°
2026-05-07 12:11 42.35679 -71.00696 29 ft 148 kts 257°
2026-05-07 12:11 42.35405 -71.02104 522 ft 156 kts 256°
2026-05-07 12:11 42.34921 -71.03407 1216 ft 158 kts 235°
2026-05-07 12:12 42.34116 -71.04518 1672 ft 175 kts 229°
2026-05-07 12:12 42.33174 -71.05732 1963 ft 198 kts 228°
2026-05-07 12:12 42.32107 -71.07091 2282 ft 224 kts 228°
2026-05-07 12:12 42.30907 -71.08612 2755 ft 248 kts 227°
2026-05-07 12:13 42.29633 -71.10218 3519 ft 258 kts 226°
2026-05-07 12:13 42.28179 -71.11653 4520 ft 265 kts 204°
2026-05-07 12:13 42.26331 -71.11872 5521 ft 276 kts 171°
2026-05-07 12:13 42.24512 -71.10939 6503 ft 282 kts 161°
2026-05-07 12:14 42.22750 -71.09714 7412 ft 286 kts 159°
2026-05-07 12:14 42.21008 -71.08393 8341 ft 288 kts 160°
2026-05-07 12:14 42.19261 -71.07050 9307 ft 289 kts 162°
2026-05-07 12:14 42.17504 -71.05718 10164 ft 290 kts 163°
2026-05-07 12:15 42.15670 -71.04365 10520 ft 312 kts 162°
2026-05-07 12:15 42.13760 -71.02681 10750 ft 341 kts 156°
2026-05-07 12:15 42.11785 -71.00821 11306 ft 350 kts 155°
2026-05-07 12:15 42.09783 -70.98932 12030 ft 353 kts 156°
2026-05-07 12:16 42.07763 -70.97029 12781 ft 355 kts 156°
2026-05-07 12:16 42.05727 -70.95116 13526 ft 358 kts 156°
2026-05-07 12:16 42.03700 -70.93220 14174 ft 361 kts 156°
2026-05-07 12:16 42.01625 -70.91289 14781 ft 364 kts 156°
2026-05-07 12:17 41.99529 -70.89345 15343 ft 368 kts 156°
2026-05-07 12:17 41.97411 -70.87379 15875 ft 372 kts 156°
2026-05-07 12:17 41.95271 -70.85389 16448 ft 376 kts 156°
2026-05-07 12:17 41.93104 -70.83377 17009 ft 380 kts 156°
2026-05-07 12:18 41.90916 -70.81351 17556 ft 385 kts 156°
2026-05-07 12:18 41.88660 -70.79445 18128 ft 378 kts 165°
2026-05-07 12:18 41.86246 -70.78184 18638 ft 367 kts 176°
2026-05-07 12:18 41.83771 -70.77636 19157 ft 355 kts 188°
2026-05-07 12:19 41.81345 -70.77755 19705 ft 344 kts 198°
2026-05-07 12:19 41.79802 -70.78169 20075 ft 338 kts 205°
2026-05-07 12:19 41.77616 -70.79232 20571 ft 331 kts 214°
2026-05-07 12:19 41.74930 -70.81206 21303 ft 330 kts 218°
2026-05-07 12:20 41.72925 -70.82717 21837 ft 332 kts 218°
2026-05-07 12:20 41.70931 -70.84215 22366 ft 333 kts 218°
2026-05-07 12:20 41.69564 -70.85239 22740 ft 334 kts 218°
2026-05-07 12:20 41.67526 -70.86765 23252 ft 336 kts 218°
2026-05-07 12:21 41.65505 -70.88278 23754 ft 337 kts 219°
2026-05-07 12:21 41.63456 -70.89809 24242 ft 337 kts 219°
2026-05-07 12:21 41.61400 -70.91345 24676 ft 338 kts 219°
2026-05-07 12:21 41.59341 -70.92881 25081 ft 340 kts 219°
2026-05-07 12:22 41.57265 -70.94429 25483 ft 342 kts 220°
2026-05-07 12:22 41.55323 -70.96188 25881 ft 334 kts 228°
2026-05-07 12:22 41.53705 -70.98356 26286 ft 327 kts 237°
2026-05-07 12:22 41.52402 -71.00826 26692 ft 325 kts 241°
2026-05-07 12:23 41.51149 -71.03348 27114 ft 327 kts 241°
2026-05-07 12:23 41.49885 -71.05878 27541 ft 328 kts 241°
2026-05-07 12:23 41.48615 -71.08418 27962 ft 330 kts 241°
2026-05-07 12:23 41.47338 -71.10968 28369 ft 331 kts 241°
2026-05-07 12:24 41.46053 -71.13521 28770 ft 332 kts 241°
2026-05-07 12:24 41.44761 -71.16084 29089 ft 334 kts 241°
2026-05-07 12:24 41.43458 -71.18669 29414 ft 337 kts 241°
2026-05-07 12:24 41.42143 -71.21276 29778 ft 339 kts 242°
2026-05-07 12:25 41.40825 -71.23892 30160 ft 340 kts 242°
2026-05-07 12:25 41.39512 -71.26498 30639 ft 337 kts 242°
2026-05-07 12:25 41.38209 -71.29084 31141 ft 335 kts 242°
2026-05-07 12:25 41.36912 -71.31651 31628 ft 333 kts 242°
2026-05-07 12:26 41.35639 -71.34169 32113 ft 331 kts 243°
2026-05-07 12:26 41.34360 -71.36703 32608 ft 329 kts 243°
2026-05-07 12:26 41.33090 -71.39217 33102 ft 327 kts 243°
2026-05-07 12:26 41.31826 -71.41718 33602 ft 325 kts 243°
2026-05-07 12:27 41.30571 -71.44203 34075 ft 323 kts 243°
2026-05-07 12:27 41.29305 -71.46704 34497 ft 321 kts 244°
2026-05-07 12:27 41.28074 -71.49131 34897 ft 320 kts 244°
2026-05-07 12:27 41.26832 -71.51581 35279 ft 319 kts 244°
2026-05-07 12:28 41.25597 -71.54018 35646 ft 318 kts 244°
2026-05-07 12:28 41.24361 -71.56455 35910 ft 318 kts 244°
2026-05-07 12:28 41.23125 -71.58887 35904 ft 317 kts 244°
2026-05-07 12:29 41.20653 -71.63735 35910 ft 316 kts 244°
2026-05-07 12:29 41.18190 -71.68578 35903 ft 316 kts 244°
2026-05-07 12:30 41.15725 -71.73414 35905 ft 316 kts 244°
2026-05-07 12:30 41.13257 -71.78255 35874 ft 317 kts 244°
2026-05-07 12:31 41.10786 -71.83120 35898 ft 318 kts 244°
2026-05-07 12:31 41.08307 -71.87997 35908 ft 319 kts 244°
2026-05-07 12:32 41.05839 -71.92831 35948 ft 318 kts 244°
2026-05-07 12:32 41.03392 -71.97709 35939 ft 313 kts 248°
2026-05-07 12:33 41.00649 -72.05476 35930 ft 310 kts 251°
2026-05-07 12:33 40.98828 -72.10646 35885 ft 309 kts 250°
2026-05-07 12:34 40.97004 -72.15801 35889 ft 309 kts 250°
2026-05-07 12:34 40.95174 -72.20963 35906 ft 310 kts 250°
2026-05-07 12:35 40.93356 -72.26094 35953 ft 310 kts 250°
2026-05-07 12:35 40.91382 -72.31172 35947 ft 316 kts 243°
2026-05-07 12:36 40.88285 -72.35477 35941 ft 325 kts 236°
2026-05-07 12:36 40.85062 -72.39682 35936 ft 325 kts 236°
2026-05-07 12:37 40.81842 -72.43880 35897 ft 326 kts 236°
2026-05-07 12:37 40.78464 -72.47944 35911 ft 333 kts 232°
2026-05-07 12:38 40.74899 -72.51807 35899 ft 334 kts 232°
2026-05-07 12:38 40.71311 -72.55684 35910 ft 334 kts 232°
2026-05-07 12:39 40.67731 -72.59587 35913 ft 332 kts 233°
2026-05-07 12:39 40.64270 -72.63565 35874 ft 328 kts 234°
2026-05-07 12:40 40.60854 -72.67540 35882 ft 328 kts 234°
2026-05-07 12:40 40.57420 -72.71513 35889 ft 329 kts 233°
2026-05-07 12:41 40.53998 -72.75445 35896 ft 329 kts 233°
2026-05-07 12:41 40.50543 -72.79397 35902 ft 329 kts 233°
2026-05-07 12:42 40.47089 -72.83350 35868 ft 329 kts 233°
2026-05-07 12:42 40.43624 -72.87305 35881 ft 330 kts 233°
2026-05-07 12:43 40.40153 -72.91257 35896 ft 331 kts 233°
2026-05-07 12:43 40.36674 -72.95209 35938 ft 331 kts 233°
2026-05-07 12:44 40.33202 -72.99152 35938 ft 330 kts 233°
2026-05-07 12:44 40.29735 -73.03076 35874 ft 329 kts 233°
2026-05-07 12:45 40.26270 -73.06998 35892 ft 329 kts 233°
2026-05-07 12:45 40.22810 -73.10924 35898 ft 329 kts 233°
2026-05-07 12:46 40.19364 -73.14827 35911 ft 329 kts 233°
2026-05-07 12:46 40.15888 -73.18749 35917 ft 329 kts 233°
2026-05-07 12:47 40.12413 -73.22665 35919 ft 329 kts 233°
2026-05-07 12:47 40.08961 -73.26552 35884 ft 330 kts 233°
2026-05-07 12:48 40.05451 -73.30497 35916 ft 331 kts 233°
2026-05-07 12:48 40.01978 -73.34384 35931 ft 331 kts 233°
2026-05-07 12:49 39.98488 -73.38287 35937 ft 330 kts 233°
2026-05-07 12:49 39.94998 -73.42180 35941 ft 330 kts 233°
2026-05-07 12:50 39.91513 -73.46077 35891 ft 330 kts 233°
2026-05-07 12:50 39.88009 -73.49982 35895 ft 332 kts 232°
2026-05-07 12:51 39.84496 -73.53898 35905 ft 333 kts 233°
2026-05-07 12:51 39.81001 -73.57805 35911 ft 333 kts 232°
2026-05-07 12:52 39.77469 -73.61729 35916 ft 334 kts 232°
2026-05-07 12:52 39.73934 -73.65648 35903 ft 334 kts 232°
2026-05-07 12:53 39.70391 -73.69574 35912 ft 334 kts 232°
2026-05-07 12:53 39.66847 -73.73494 35922 ft 335 kts 232°
2026-05-07 12:54 39.63298 -73.77412 35922 ft 335 kts 232°
2026-05-07 12:54 39.59774 -73.81306 35928 ft 335 kts 232°
2026-05-07 12:55 39.56229 -73.85226 35935 ft 335 kts 232°
2026-05-07 12:55 39.52686 -73.89139 35939 ft 335 kts 232°
2026-05-07 12:56 39.49135 -73.93055 35939 ft 335 kts 232°
2026-05-07 12:56 39.45579 -73.96961 35949 ft 335 kts 232°
2026-05-07 12:57 39.42020 -74.00850 35977 ft 335 kts 232°
2026-05-07 12:57 39.38466 -74.04737 35971 ft 334 kts 232°
2026-05-07 12:58 39.34928 -74.08614 35913 ft 333 kts 232°
2026-05-07 12:58 39.31385 -74.12486 35926 ft 334 kts 232°
2026-05-07 12:59 39.27850 -74.16339 35930 ft 335 kts 232°
2026-05-07 12:59 39.24285 -74.20217 35947 ft 335 kts 232°
2026-05-07 13:00 39.20715 -74.24100 35948 ft 335 kts 232°
2026-05-07 13:00 39.17145 -74.27976 35894 ft 335 kts 232°
2026-05-07 13:01 39.13560 -74.31854 35918 ft 336 kts 231°
2026-05-07 13:01 39.09970 -74.35740 35932 ft 337 kts 232°
2026-05-07 13:02 39.06391 -74.39624 35966 ft 336 kts 231°
2026-05-07 13:02 39.02833 -74.43464 35966 ft 336 kts 231°
2026-05-07 13:03 38.99251 -74.47325 35968 ft 336 kts 231°
2026-05-07 13:03 38.95666 -74.51179 35950 ft 336 kts 231°
2026-05-07 13:04 38.92120 -74.55069 35962 ft 333 kts 233°
2026-05-07 13:04 38.88709 -74.59086 35971 ft 332 kts 233°
2026-05-07 13:05 38.85317 -74.63118 35975 ft 332 kts 233°
2026-05-07 13:05 38.81930 -74.67103 35979 ft 332 kts 233°
2026-05-07 13:06 38.78513 -74.71099 35927 ft 333 kts 233°
2026-05-07 13:06 38.75081 -74.75098 35930 ft 334 kts 233°
2026-05-07 13:07 38.71469 -74.78993 35939 ft 339 kts 231°
2026-05-07 13:07 38.68401 -74.82129 35944 ft 340 kts 231°
2026-05-07 13:08 38.64115 -74.86529 35945 ft 340 kts 231°
2026-05-07 13:08 38.61059 -74.89694 35948 ft 339 kts 231°
2026-05-07 13:09 38.57388 -74.93496 35916 ft 340 kts 231°
2026-05-07 13:09 38.53717 -74.97310 35924 ft 340 kts 231°
2026-05-07 13:10 38.50102 -75.01193 35942 ft 338 kts 233°
2026-05-07 13:10 38.46570 -75.05173 35959 ft 339 kts 232°
2026-05-07 13:11 38.42830 -75.08933 36009 ft 344 kts 229°
2026-05-07 13:11 38.38954 -75.12535 35943 ft 345 kts 229°
2026-05-07 13:12 38.35086 -75.16138 35953 ft 344 kts 229°
2026-05-07 13:12 38.31243 -75.19768 35962 ft 344 kts 229°
2026-05-07 13:13 38.27397 -75.23411 35968 ft 344 kts 229°
2026-05-07 13:13 38.23554 -75.27057 35962 ft 344 kts 229°
2026-05-07 13:14 38.19709 -75.30700 35961 ft 345 kts 229°
2026-05-07 13:14 38.15843 -75.34335 35916 ft 345 kts 229°
2026-05-07 13:15 38.11977 -75.37964 35925 ft 346 kts 229°
2026-05-07 13:15 38.08116 -75.41602 35923 ft 346 kts 229°
2026-05-07 13:16 38.04235 -75.45219 35941 ft 348 kts 227°
2026-05-07 13:16 38.00172 -75.48621 35932 ft 351 kts 225°
2026-05-07 13:17 37.96072 -75.51924 35933 ft 352 kts 225°
2026-05-07 13:17 37.91939 -75.55285 35940 ft 353 kts 225°
2026-05-07 13:18 37.87811 -75.58683 35951 ft 354 kts 226°
2026-05-07 13:18 37.83687 -75.62091 35955 ft 354 kts 225°
2026-05-07 13:19 37.79551 -75.65494 35965 ft 355 kts 225°
2026-05-07 13:19 37.75402 -75.68883 35416 ft 355 kts 225°
2026-05-07 13:20 37.73321 -75.70590 34676 ft 359 kts 225°
2026-05-07 13:20 37.71259 -75.72374 33930 ft 357 kts 229°
2026-05-07 13:20 37.69481 -75.74456 33071 ft 351 kts 236°
2026-05-07 13:20 37.67998 -75.76894 32125 ft 351 kts 242°
2026-05-07 13:21 37.66846 -75.79619 31111 ft 355 kts 247°
2026-05-07 13:21 37.65779 -75.82494 30082 ft 366 kts 246°
2026-05-07 13:21 37.64690 -75.85408 29207 ft 368 kts 246°
2026-05-07 13:21 37.63595 -75.88319 28478 ft 366 kts 245°
2026-05-07 13:22 37.62504 -75.91210 27810 ft 364 kts 245°
2026-05-07 13:22 37.61420 -75.94083 27153 ft 361 kts 245°
2026-05-07 13:22 37.60428 -75.96975 26523 ft 358 kts 251°
2026-05-07 13:22 37.59724 -75.99969 25907 ft 355 kts 253°
2026-05-07 13:23 37.59033 -76.02946 25306 ft 352 kts 253°
2026-05-07 13:23 37.58339 -76.05902 24725 ft 350 kts 253°
2026-05-07 13:23 37.57646 -76.08835 24162 ft 348 kts 253°
2026-05-07 13:23 37.56954 -76.11749 23603 ft 346 kts 253°
2026-05-07 13:24 37.56264 -76.14649 22961 ft 344 kts 252°
2026-05-07 13:24 37.55577 -76.17546 22269 ft 345 kts 252°
2026-05-07 13:24 37.54889 -76.20447 21650 ft 345 kts 252°
2026-05-07 13:24 37.54205 -76.23338 21086 ft 343 kts 252°
2026-05-07 13:25 37.53526 -76.26211 20527 ft 341 kts 252°
2026-05-07 13:25 37.52851 -76.29069 19974 ft 339 kts 252°
2026-05-07 13:25 37.52177 -76.31911 19419 ft 338 kts 252°
2026-05-07 13:25 37.51502 -76.34736 18880 ft 336 kts 251°
2026-05-07 13:26 37.50836 -76.37514 18355 ft 335 kts 251°
2026-05-07 13:26 37.50163 -76.40320 17746 ft 333 kts 251°
2026-05-07 13:26 37.49493 -76.43106 17140 ft 331 kts 252°
2026-05-07 13:26 37.48830 -76.45874 16578 ft 329 kts 252°
2026-05-07 13:27 37.48172 -76.48626 16036 ft 328 kts 252°
2026-05-07 13:27 37.47517 -76.51367 15549 ft 325 kts 252°
2026-05-07 13:27 37.46874 -76.54052 15227 ft 316 kts 252°
2026-05-07 13:27 37.46242 -76.56687 14764 ft 313 kts 252°
2026-05-07 13:28 37.45614 -76.59295 14251 ft 311 kts 252°
2026-05-07 13:28 37.44985 -76.61897 13724 ft 310 kts 252°
2026-05-07 13:28 37.44354 -76.64496 13154 ft 309 kts 252°
2026-05-07 13:28 37.43728 -76.67075 12627 ft 308 kts 253°
2026-05-07 13:29 37.43107 -76.69644 12059 ft 307 kts 253°
2026-05-07 13:29 37.42487 -76.72215 11534 ft 306 kts 254°
2026-05-07 13:29 37.41871 -76.74767 11076 ft 303 kts 254°
2026-05-07 13:29 37.41260 -76.77291 10641 ft 300 kts 254°
2026-05-07 13:30 37.40656 -76.79786 10217 ft 297 kts 255°
2026-05-07 13:30 37.40058 -76.82249 9912 ft 287 kts 255°
2026-05-07 13:30 37.39497 -76.84542 9788 ft 262 kts 255°
2026-05-07 13:30 37.38977 -76.86666 9456 ft 249 kts 255°
2026-05-07 13:31 37.38474 -76.88738 8953 ft 248 kts 255°
2026-05-07 13:31 37.37970 -76.90814 8625 ft 248 kts 254°
2026-05-07 13:31 37.37473 -76.92861 8296 ft 248 kts 254°
2026-05-07 13:31 37.36968 -76.94933 7964 ft 248 kts 254°
2026-05-07 13:32 37.36462 -76.97009 7636 ft 248 kts 253°
2026-05-07 13:32 37.35953 -76.99088 7289 ft 249 kts 253°
2026-05-07 13:32 37.35442 -77.01173 6976 ft 249 kts 253°
2026-05-07 13:32 37.34928 -77.03258 6658 ft 249 kts 253°
2026-05-07 13:33 37.34413 -77.05342 6322 ft 250 kts 253°
2026-05-07 13:33 37.33900 -77.07434 5952 ft 251 kts 253°
2026-05-07 13:33 37.33382 -77.09543 5600 ft 253 kts 253°
2026-05-07 13:33 37.32893 -77.11663 5261 ft 253 kts 258°
2026-05-07 13:34 37.32650 -77.13860 4898 ft 255 kts 264°
2026-05-07 13:34 37.32210 -77.18280 4256 ft 255 kts 264°
2026-05-07 13:34 37.31990 -77.20462 3943 ft 255 kts 263°
2026-05-07 13:35 37.31763 -77.22693 3548 ft 259 kts 264°
2026-05-07 13:35 37.31537 -77.24911 3418 ft 252 kts 265°
2026-05-07 13:35 37.31316 -77.27054 3293 ft 244 kts 264°
2026-05-07 13:35 37.31099 -77.29132 3168 ft 235 kts 265°
2026-05-07 13:36 37.30946 -77.31138 3033 ft 225 kts 275°
2026-05-07 13:36 37.31209 -77.32999 2909 ft 210 kts 294°
2026-05-07 13:36 37.31857 -77.34569 2790 ft 197 kts 311°
2026-05-07 13:36 37.32770 -77.35774 2632 ft 186 kts 328°
2026-05-07 13:37 37.33848 -77.36588 2425 ft 177 kts 343°
2026-05-07 13:37 37.34974 -77.36997 2314 ft 160 kts 356°
2026-05-07 13:37 37.36037 -77.37051 2182 ft 144 kts
2026-05-07 13:37 37.36947 -77.36845 2112 ft 131 kts 16°
2026-05-07 13:38 37.37832 -77.36581 2043 ft 130 kts 17°
2026-05-07 13:38 37.38713 -77.36317 2011 ft 130 kts 16°
2026-05-07 13:38 37.39591 -77.36055 2012 ft 130 kts 17°
2026-05-07 13:38 37.40468 -77.35792 1989 ft 130 kts 17°
2026-05-07 13:39 37.41350 -77.35527 1883 ft 130 kts 16°
2026-05-07 13:39 37.42228 -77.35265 1742 ft 129 kts 16°
2026-05-07 13:39 37.43102 -77.35002 1577 ft 129 kts 15°
2026-05-07 13:39 37.43972 -77.34742 1410 ft 128 kts 17°
2026-05-07 13:40 37.44841 -77.34481 1236 ft 130 kts 14°
2026-05-07 13:40 37.45719 -77.34218 1053 ft 128 kts 15°
2026-05-07 13:40 37.46585 -77.33958 881 ft 127 kts 15°
2026-05-07 13:40 37.47466 -77.33693 701 ft 130 kts 15°
2026-05-07 13:41 37.48364 -77.33424 532 ft 131 kts 17°
2026-05-07 13:41 37.49248 -77.33159 352 ft 130 kts 17°
2026-05-07 13:41 37.50109 -77.32899 182 ft 126 kts 15°
2026-05-07 13:41 37.50832 -77.32675 168 ft 75 kts 13°
2026-05-07 13:42 37.51081 -77.32607 169 ft 17 kts 12°
2026-05-07 13:42 37.51193 -77.32576 169 ft 17 kts 12°
2026-05-07 13:42 37.51316 -77.32583 170 ft 16 kts 349°
2026-05-07 13:42 37.51400 -77.32606 169 ft 14 kts 343°
2026-05-07 13:43 37.51426 -77.32616 169 ft 3 kts 343°
2026-05-07 13:43 37.51459 -77.32632 169 ft 7 kts 333°
2026-05-07 13:43 37.51475 -77.32700 168 ft 10 kts 247°
2026-05-07 13:43 37.51404 -77.32739 168 ft 13 kts 193°
2026-05-07 13:44 37.51308 -77.32767 168 ft 16 kts 193°
2026-05-07 13:44 37.51197 -77.32801 168 ft 16 kts 193°
2026-05-07 13:44 37.51113 -77.32836 168 ft 9 kts 227°
2026-05-07 13:44 37.51116 -77.32921 168 ft 11 kts 283°
2026-05-07 13:45 37.51137 -77.33030 168 ft 12 kts 283°
2026-05-07 13:45 37.51096 -77.33115 168 ft 14 kts 192°
2026-05-07 13:45 37.51012 -77.33121 168 ft 9 kts 172°
2026-05-07 13:45 37.50962 -77.33115 168 ft 5 kts 176°
2026-05-07 13:46 37.50935 -77.33113 168 ft 0 kts 176°